Regional Weather Roundup
Issued by NWS Newport/Morehead, NC

Current Version | Previous Version | Graphics & Text | Print | Product List | Glossary Off
Versions: 1 2 3 4 5 6 7 8 9 10 11 12 13 14 15 16 17 18 19 20 21 22 23 24 25 26 27 28 29 30 31 32 33 34 35 36 37 38 39 40 41 42 43 44 45 46 47 48 49 50

000
ASUS42 KMHX 310910
RWRMHX
WEATHER ROUNDUP FOR EASTERN NORTH CAROLINA
NATIONAL WEATHER SERVICE NEWPORT/MOREHEAD CITY NC
500 AM EDT FRI OCT 31 2014

NOTE: "FAIR" INDICATES FEW OR NO CLOUDS BELOW 12,000 FEET
WITH NO SIGNIFICANT WEATHER AND/OR OBSTRUCTIONS TO VISIBILITY

NCZ015>017-031-032-045>047-102-103-311000-
NORTH COAST

CITY           SKY/WX    TMP DP  RH WIND       PRES   REMARKS
EDENTON        PTCLDY    47  43  88 N6        29.94S
ELIZABETH CITY MOCLDY    54  45  71 N8        29.94S
KITTY HAWK     CLOUDY    59  44  56 N7        29.91R
MANTEO         CLOUDY    58  45  60 N10G17    29.92S

$$

NCZ045>047-081-094-103-104-311000-
CENTRAL COAST

CITY           SKY/WX    TMP DP  RH WIND       PRES   REMARKS
FRISCO         CLOUDY    60  50  69 NE10G22   29.88S
SWANQUARTER      N/A     54 N/A N/A N6        29.85F

$$

NCZ095-097-098-100-101-311000-
SOUTHERN COAST

CITY           SKY/WX    TMP DP  RH WIND       PRES   REMARKS
BEAUFORT       MOCLDY    58  49  72 N14       29.87F
CEDAR ISLAND     N/A     61 N/A N/A VRB23     29.91F
JACKSONVILLE   MOCLDY    52  47  83 N8        29.89F
PINEY ISLAND   PTSUNNY   62  49  62 N15G22    29.88F
WILMINGTON     PTCLDY    51  49  92 N7        29.89F


$$

NCZ011>013-027>030-043-044-078>080-089-090>093-098-311000-
COASTAL PLAIN

CITY           SKY/WX    TMP DP  RH WIND       PRES   REMARKS
AHOSKIE        NOT AVBL
CLINTON        PTCLDY    48  47  97 N3        29.93F
ELIZABETHTOWN  CLEAR     49  48  99 CALM      29.92F
GOLDSBORO      MOCLDY    48  47  97 N6        29.92F
GREENVILLE     MOCLDY    46  45  93 N3        29.96F
HAVELOCK       MOCLDY    55  48  77 N13       29.90F
KENANSVILLE    MOCLDY    48  46  92 N3        29.94S
KINSTON        MOCLDY    47  45  94 N5        29.94F
NEW BERN       CLOUDY    54  47  77 NE7       29.92F
RICHLANDS      MOCLDY    48  45  87 N5        29.91F
ROCKY MOUNT    PTCLDY    46  42  86 N8        29.96F
WASHINGTON     CLOUDY    47  43  87 N6        29.93F
WHITEVILLE     CLEAR     51  48  90 CALM      29.91S

$$

AMZ130-135-150-152-154-156-158-170-250-252-270-ANZ085-086-088-633-658-670-311000-
MARINE OBSERVATIONS

STATION/POSITION TIME  TEMP    WIND        PRES    WAVE   SWELL
                       AIR SEA DIR/SP/G            HT/PER HT/PER
                 (UTC) (F)     (DEG/KT/KT) (MB)    (FT/S) (FT/S)
CHESAPEAKE LIGHT 0800   58      40/ 13/ 14 1014.6
64 E VA BEACH    0900   60 66   40/ 14/ 16 1012.6    3/ 4   2/ 7
DUCK             0900   60 66   20/ 15/ 17 1012.4
2 E DUCK         NOT AVBL
10 NE DUCK       0900      67                N/A     3/ 4
OREGON INLET     0900   60 67   10/ 14/ 19 1012.4
13E OREGON INLT  0900      69                N/A     4/ 5
HATTERAS CG      0900   62 66   30/ 14/ 21 1012.0
DIAMOND BUOY     0900   65      20/ 23/ 27 1010.3    6/ 6
17 S OCRACOKE    NOT AVBL
CAPE LOOKOUT     0800   61      20/ 15/ 18 1011.5
BEAUFORT LAB     0900   59 69   20/ 10/ 15 1010.9
30 SE NEW RIVER  0900   64 74   30/ 21/ 27 1009.8    5/ 5   2/ 8
5 SE WRIGHTSVLE  0800   60 71   60/ 19/ 23   N/A
225 S CAPE HAT   0843   76 78  200/ 14/ 17 1009.2    3/ 8   2/ 8
41 SE CHARLESTON 0900   69 77   10/ 19/ 21 1009.4    5/ 7   2/ 9

$$



USA.gov is the U.S. government's official web portal to all federal, state and local government web resources and services.